Colorado Springs, CO

11:39 PM MDT on April 26, 2018 (GMT -0600)
City Of Colorado Springs Municipal

Weather History for KCOS - July, 2013

Change the Weather History Date:

Friday, July 5, 2013

  Actual Average Record
Temperature  
Mean Temperature 76 °F 70 °F  
Max Temperature 91 °F 85 °F 97 °F (1985)
Min Temperature 60 °F 56 °F 41 °F (1903)
Degree Days  
Heating Degree Days 0 0  
Month to date heating degree days 2 3  
Since 1 June heating degree days 27 82  
Since 1 July heating degree days 2 3  
Cooling Degree Days 11 6  
Month to date cooling degree days 24 28  
Year to date cooling degree days 228 121  
Since 1 June cooling degree days 206 111  
Growing Degree Days 24 (Base 50)    
Moisture  
Dew Point 50 °F    
Average Humidity 47    
Maximum Humidity 73    
Minimum Humidity 20    
Precipitation  
Precipitation 0.85 in 0.08 in 1.24 in (1977)
Month to date precipitation 0.87 0.36  
Year to date precipitation 4.20 7.97  
Snow  
Snow 0.00 in 0.00 in 0.00 in (2002)
Month to date snowfall 0.0 0.0  
Since 1 June snowfall 0.0 0.0  
Since 1 July snowfall 0.0 0.0  
Snow Depth 0.00 in    
Sea Level Pressure  
Sea Level Pressure 29.82 in    
Wind  
Wind Speed 9 mph (NW)    
Max Wind Speed 33 mph    
Max Gust Speed 46 mph    
Visibility 8 miles    
Events Rain , Thunderstorm    
T = Trace of Precipitation, MM = Missing Value Source: NWS Daily Summary

Daily Weather History Graph

Daily Weather History Graph

Search for Another Location

Airport or City:

Astronomy

Jul. 05, 2013 Rise Set
Actual Time 5:39 AM MDT 8:27 PM MDT
Civil Twilight 5:08 AM MDT 8:58 PM MDT
Nautical Twilight 4:28 AM MDT 9:38 PM MDT
Astronomical Twilight 3:42 AM MDT 10:23 PM MDT
Moon 3:40 AM MDT (7/5) 6:24 PM MDT (7/5)
Length of Visible Light 15h 50m
Length of Day
14h 47m
Waning Crescent, 6% of the Moon is Illuminated
Jul 5
Waning Crescent
Jul 8
New
Jul 15
First Quarter
Jul 22
Full
Jul 29
Last Quarter

Hourly Weather History & Observations

Time (MDT) Temp. Dew Point Humidity Pressure Visibility Wind Dir Wind Speed Gust Speed Precip Events Conditions
12:54 AM 64.0 °F 43.0 °F 46% 29.76 in 10.0 mi NNE 5.8 mph - N/A   Clear
1:54 AM 63.0 °F 44.1 °F 50% 29.75 in 10.0 mi North 5.8 mph - N/A   Clear
2:54 AM 60.1 °F 44.1 °F 55% 29.74 in 10.0 mi NNE 9.2 mph - N/A   Partly Cloudy
3:54 AM 62.1 °F 43.0 °F 50% 29.72 in 10.0 mi North 8.1 mph - N/A   Partly Cloudy
4:54 AM 62.1 °F 43.0 °F 50% 29.73 in 10.0 mi NNW 4.6 mph - N/A   Scattered Clouds
5:54 AM 64.0 °F 43.0 °F 46% 29.73 in 10.0 mi North 6.9 mph - N/A   Mostly Cloudy
6:54 AM 73.9 °F 42.1 °F 32% 29.73 in 10.0 mi NW 9.2 mph - N/A   Mostly Cloudy
7:54 AM 73.0 °F 46.0 °F 38% 29.75 in 10.0 mi NW 12.7 mph - N/A   Mostly Cloudy
8:54 AM 73.0 °F 48.9 °F 42% 29.75 in 10.0 mi WNW 10.4 mph - 0.00 in   Mostly Cloudy
9:54 AM 80.1 °F 46.0 °F 30% 29.72 in 10.0 mi WNW 5.8 mph - N/A   Mostly Cloudy
10:54 AM 82.9 °F 42.1 °F 24% 29.71 in 10.0 mi Calm Calm - N/A   Scattered Clouds
11:54 AM 86.0 °F 42.1 °F 21% 29.70 in 10.0 mi SSE 11.5 mph - N/A   Scattered Clouds
12:54 PM 84.9 °F 41.0 °F 21% 29.70 in 10.0 mi Calm Calm - N/A   Mostly Cloudy
1:54 PM 88.0 °F 42.1 °F 20% 29.68 in 10.0 mi NNW 6.9 mph - N/A   Mostly Cloudy
2:54 PM 88.0 °F 41.0 °F 19% 29.66 in 10.0 mi WSW 4.6 mph - N/A   Mostly Cloudy
3:29 PM 86.0 °F 42.8 °F 22% 29.94 in 10.0 mi SSE 8.1 mph - N/A Thunderstorm Thunderstorm
3:54 PM 81.0 °F 46.0 °F 29% 29.72 in 8.0 mi West 32.2 mph 41.4 mph 0.00 in Rain , Thunderstorm Light Thunderstorms and Rain
4:00 PM 71.6 °F 53.6 °F 53% 30.01 in 1.0 mi West 32.2 mph 46.0 mph 0.00 in Rain , Thunderstorm Heavy Thunderstorms and Rain
4:03 PM 68.0 °F 53.6 °F 60% 30.02 in 0.8 mi West 33.4 mph 46.0 mph 0.08 in Rain , Thunderstorm Heavy Thunderstorms and Rain
4:07 PM 66.2 °F 55.4 °F 68% 30.04 in 0.5 mi WSW 21.9 mph 46.0 mph 0.23 in Rain , Thunderstorm Heavy Thunderstorms and Rain
4:09 PM 66.2 °F 55.4 °F 68% 30.04 in 0.2 mi SW 17.3 mph 41.4 mph 0.36 in Rain , Thunderstorm Heavy Thunderstorms and Rain
4:18 PM 66.2 °F 55.4 °F 68% 30.04 in 4.0 mi WNW 4.6 mph 25.3 mph 0.68 in Rain , Thunderstorm Thunderstorms and Rain
4:33 PM 66.2 °F 57.2 °F 73% 30.04 in 7.0 mi ENE 15.0 mph - 0.78 in Rain , Thunderstorm Light Thunderstorms and Rain
4:54 PM 66.0 °F 55.9 °F 70% 29.81 in 7.0 mi NE 17.3 mph 25.3 mph 0.85 in Rain Light Rain
5:54 PM 69.1 °F 57.0 °F 65% 29.77 in 10.0 mi NE 9.2 mph - 0.00 in   Mostly Cloudy
6:30 PM 69.8 °F 57.2 °F 64% 30.03 in 10.0 mi WNW 6.9 mph - N/A Thunderstorm Thunderstorm
6:54 PM 70.0 °F 57.0 °F 63% 29.76 in 10.0 mi Variable 3.5 mph - 0.00 in   Overcast
7:27 PM 69.8 °F 59.0 °F 68% 30.05 in 9.0 mi WNW 6.9 mph - N/A Thunderstorm Thunderstorm
7:45 PM 69.8 °F 59.0 °F 68% 30.06 in 10.0 mi WNW 8.1 mph - N/A   Mostly Cloudy
7:54 PM 69.1 °F 57.9 °F 68% 29.80 in 10.0 mi WNW 6.9 mph - N/A   Mostly Cloudy
8:54 PM 66.9 °F 55.0 °F 66% 29.78 in 10.0 mi WNW 9.2 mph - 0.00 in   Mostly Cloudy
9:54 PM 66.9 °F 54.0 °F 63% 29.77 in 10.0 mi WNW 8.1 mph - N/A   Mostly Cloudy
10:54 PM 64.9 °F 55.9 °F 73% 29.76 in 10.0 mi West 6.9 mph - N/A   Mostly Cloudy
11:54 PM 66.9 °F 54.0 °F 63% 29.72 in 10.0 mi NNW 5.8 mph - N/A   Mostly Cloudy